CW1020 Weather Reports


time (UTC)temp
F
wind
direction
speed
knots
gust
knots
rain 1hr
in
rain 24hr
in
rain mn
in
humidity
%
barometer
mb
20260505041503 48 304 1.7 8.7 0.00 0.00 0.00 72 1013.9
20260505041003 48 307 0.9 6.1 0.00 0.00 0.00 72 1013.9
20260505040503 48 308 1.7 3.5 0.00 0.00 0.00 72 1013.9
20260505040004 48 271 2.6 3.5 0.00 0.00 0.00 73 1014.0
20260505035503 48 306 1.7 4.3 0.00 0.00 0.00 73 1013.9
20260505035003 48 287 2.6 5.2 0.00 0.00 0.00 73 1013.9
20260505034503 48 307 3.5 4.3 0.00 0.00 0.00 73 1013.9
20260505034003 48 276 4.3 5.2 0.00 0.00 0.00 72 1013.8
20260505033503 48 265 5.2 7.0 0.00 0.00 0.00 72 1013.8
20260505033004 48 270 6.1 8.7 0.00 0.00 0.00 73 1013.8
20260505032503 48 281 6.1 8.7 0.00 0.00 0.00 73 1013.7
20260505032003 48 295 7.0 8.7 0.00 0.00 0.00 72 1013.6
20260505031003 49 285 7.0 13.0 0.00 0.00 0.00 72 1013.4
20260505030503 49 294 7.8 10.4 0.00 0.00 0.00 72 1013.4
20260505030004 49 299 8.7 12.2 0.00 0.00 0.00 71 1013.4
20260505025503 49 302 8.7 13.9 0.00 0.00 0.00 71 1013.3
20260505025004 49 310 7.8 13.0 0.00 0.00 0.00 71 1013.3
20260505024503 49 311 7.8 13.0 0.00 0.00 0.00 70 1013.3
20260505024003 49 301 7.8 11.3 0.00 0.00 0.00 70 1013.3
20260505023503 50 295 7.0 14.8 0.00 0.00 0.00 71 1013.4
20260505023003 50 303 6.1 9.6 0.00 0.00 0.00 71 1013.4
20260505022503 50 308 6.1 9.6 0.00 0.00 0.00 71 1013.4
20260505022003 50 298 7.0 8.7 0.00 0.00 0.00 70 1013.4
20260505021503 50 293 7.0 11.3 0.00 0.00 0.00 70 1013.4
20260505021003 50 286 7.0 10.4 0.00 0.00 0.00 70 1013.5
20260505020504 50 300 7.0 10.4 0.00 0.00 0.00 69 1013.3
20260505020003 50 289 7.0 7.8 0.00 0.00 0.00 69 1013.4
20260505015504 50 308 7.8 11.3 0.00 0.00 0.00 69 1013.4
20260505015003 50 294 7.0 11.3 0.00 0.00 0.00 69 1013.3
20260505014503 50 307 6.1 11.3 0.00 0.00 0.00 69 1013.4
20260505014004 51 304 7.0 9.6 0.00 0.00 0.00 69 1013.4
20260505013503 51 320 6.1 11.3 0.00 0.00 0.00 68 1013.4
20260505013004 51 315 4.3 10.4 0.00 0.00 0.00 67 1013.3
20260505011004 52 316 7.0 12.2 0.00 0.00 0.00 64 1013.2
20260505010503 52 274 7.0 11.3 0.00 0.00 0.00 65 1013.3
20260505005503 53 302 7.8 11.3 0.00 0.00 0.00 62 1013.4
20260505005004 52 308 8.7 12.2 0.00 0.00 0.00 65 1013.4
20260505004503 52 313 8.7 13.9 0.00 0.00 0.00 67 1013.6
20260505004003 52 314 7.8 13.9 0.00 0.00 0.00 67 1013.6
20260505003503 52 320 8.7 14.8 0.00 0.00 0.00 66 1013.6
20260505002503 52 315 8.7 14.8 0.00 0.00 0.00 65 1013.6
20260505002003 52 290 8.7 13.9 0.00 0.00 0.00 65 1013.6
20260505001503 52 313 7.8 15.6 0.00 0.00 0.00 65 1013.4
20260505001004 52 297 7.0 11.3 0.00 0.00 0.00 63 1013.5
20260505000503 53 284 7.8 15.6 0.00 0.00 0.00 62 1013.6
20260505000004 53 309 7.8 9.6 0.00 0.00 0.00 63 1013.5
20260504235503 53 264 10.4 12.2 0.00 0.00 0.00 63 1013.6
20260504235004 53 287 10.4 13.9 0.00 0.00 0.00 62 1013.7
20260504234503 53 275 8.7 15.6 0.00 0.00 0.00 62 1013.7
20260504234003 53 275 7.8 10.4 0.00 0.00 0.00 63 1013.6
20260504233004 52 290 7.8 8.7 0.00 0.00 0.00 64 1013.8
20260504232503 52 317 7.8 16.5 0.00 0.00 0.00 63 1013.6
20260504232003 52 289 8.7 9.6 0.00 0.00 0.00 63 1013.8
20260504231004 52 309 7.0 12.2 0.00 0.00 0.00 62 1013.7
20260504225503 53 282 7.0 16.5 0.00 0.00 0.00 61 1013.8
20260504224503 52 287 7.8 16.5 0.00 0.00 0.00 60 1013.9
20260504224003 53 276 8.7 13.0 0.00 0.00 0.00 59 1013.9
20260504223504 53 273 9.6 11.3 0.00 0.00 0.00 60 1013.9
20260504223003 52 282 8.7 14.8 0.00 0.00 0.00 60 1013.9
20260504222504 52 302 8.7 15.6 0.00 0.00 0.00 62 1014.0
20260504222004 52 295 8.7 12.2 0.00 0.00 0.00 63 1014.1
20260504221503 52 298 7.8 10.4 0.00 0.00 0.00 62 1014.0
20260504220004 52 314 10.4 14.8 0.00 0.00 0.00 62 1014.2
20260504215003 52 320 7.8 14.8 0.00 0.00 0.00 63 1014.2
20260504214504 52 311 6.1 14.8 0.00 0.00 0.00 64 1014.4
20260504214003 52 317 7.0 8.7 0.00 0.00 0.00 64 1014.5
20260504213503 51 313 7.8 9.6 0.00 0.00 0.00 69 1014.6
20260504213004 50 307 7.0 12.2 0.00 0.00 0.00 71 1014.8
20260504212502 50 304 7.0 10.4 0.00 0.00 0.00 71 1014.8
20260504211502 49 314 8.7 14.8 0.00 0.00 0.00 73 1015.0
20260504210003 49 311 7.8 13.9 0.00 0.00 0.00 74 1015.0
20260504205502 49 310 8.7 11.3 0.00 0.00 0.00 73 1015.0
20260504205003 49 311 8.7 10.4 0.00 0.00 0.00 74 1014.9
20260504204503 49 311 7.8 12.2 0.00 0.00 0.00 74 1014.8
20260504204002 49 317 7.8 13.0 0.00 0.00 0.00 74 1014.9
20260504203502 49 317 8.7 10.4 0.00 0.00 0.00 75 1014.9
20260504203002 49 319 7.8 13.0 0.00 0.00 0.00 76 1014.8
20260504202502 49 317 7.8 12.2 0.00 0.00 0.00 75 1014.8
20260504202002 49 313 7.0 13.9 0.00 0.00 0.00 75 1014.7
20260504201502 49 322 6.1 9.6 0.00 0.00 0.00 76 1014.7
20260504201002 49 309 5.2 7.8 0.00 0.00 0.00 76 1014.7
20260504200502 48 314 4.3 7.8 0.00 0.00 0.00 77 1014.8
20260504200003 48 316 4.3 7.8 0.00 0.00 0.00 79 1015.1
20260504195502 48 296 6.1 7.0 0.00 0.00 0.00 78 1015.3
20260504195002 47 290 7.0 8.7 0.00 0.00 0.00 80 1015.3
20260504194503 47 292 8.7 9.6 0.00 0.00 0.00 80 1015.3
20260504194002 47 284 8.7 12.2 0.00 0.00 0.00 79 1015.2
20260504193502 47 264 8.7 11.3 0.00 0.00 0.00 79 1015.4
20260504193002 47 266 7.8 13.9 0.00 0.00 0.00 80 1015.4
20260504192003 46 247 7.8 12.2 0.00 0.00 0.00 83 1015.3
20260504191503 45 276 5.2 9.6 0.00 0.00 0.00 84 1015.4
20260504190502 46 257 4.3 7.8 0.00 0.00 0.00 82 1015.4
20260504190003 46 301 7.0 5.2 0.00 0.00 0.00 81 1015.4
20260504185502 46 266 7.0 13.0 0.00 0.00 0.00 79 1015.4
20260504185002 46 254 7.0 9.6 0.00 0.00 0.00 79 1015.3
20260504184503 46 257 7.0 10.4 0.00 0.00 0.00 79 1015.4
20260504184002 46 245 7.0 12.2 0.00 0.00 0.00 80 1015.3
20260504183003 45 255 6.1 13.0 0.00 0.00 0.00 79 1015.2
20260504182502 45 231 7.0 10.4 0.00 0.00 0.00 80 1015.3
20260504181503 45 242 7.0 12.2 0.00 0.00 0.00 79 1015.2
20260504180502 45 259 5.2 7.0 0.00 0.00 0.00 80 1015.2
20260504180004 45 257 6.1 6.1 0.00 0.00 0.00 79 1015.3
20260504175502 45 268 5.2 12.2 0.00 0.00 0.00 80 1015.3
20260504175003 46 256 4.3 9.6 0.00 0.00 0.00 80 1015.4
20260504174502 45 273 2.6 7.8 0.00 0.00 0.00 80 1015.5
20260504173502 45 285 5.2 6.1 0.00 0.00 0.00 80 1015.2
20260504173003 45 261 5.2 8.7 0.00 0.00 0.00 80 1015.1
20260504172502 45 240 6.1 7.8 0.00 0.00 0.00 80 1015.1
20260504172003 45 251 6.1 10.4 0.00 0.00 0.00 80 1015.1
20260504171502 45 252 4.3 10.4 0.00 0.00 0.00 80 1015.0
20260504171003 45 254 4.3 8.7 0.00 0.00 0.00 81 1014.9
20260504170503 44 261 6.1 7.8 0.00 0.00 0.00 81 1014.9
20260504151003 43 314 6.1 12.2 0.00 0.00 0.00 83 1014.9
20260504150502 43 321 4.3 11.3 0.00 0.00 0.00 83 1014.9
20260504141003 42 308 6.1 10.4 0.00 0.00 0.00 82 1014.5
20260504140502 43 316 6.1 10.4 0.00 0.00 0.00 82 1014.5
20260504130502 44 307 4.3 7.8 0.00 0.00 0.00 79 1014.0
20260504100503 45 299 2.6 6.1 0.00 0.00 0.00 78 1014.0
20260504082003 46 311 8.7 12.2 0.00 0.00 0.00 77 1014.3
20260504081502 46 316 7.8 13.0 0.00 0.00 0.00 76 1014.3
20260504081003 46 314 7.8 13.9 0.00 0.00 0.00 76 1014.4
20260504080504 46 315 7.0 11.3 0.00 0.00 0.00 76 1014.5
20260504050504 49 303 4.3 3.5 0.00 0.00 0.00 72 1014.3
20260504050005 50 310 3.5 7.8 0.00 0.00 0.00 72 1014.1